RH
8 10 11 13 15 16 18 17 17 19 20 25 31 31 30 29 26 30 34 36 35 33 34 34 35 38 35 39 47 47 43 39 38 40 41 38 30 28 29 27 25 23 20 20 22 22 23 23 23 23 23 24 25 26 28 28 29 29 28 29 28 25 26 29 29 28 27 26 27 29 31 32 30 28 32 36 39 43 45 45 44 43 40 38 40 41
8 8 9 11 14 15 17 18 17 17 19 24 30 31 29 26 27 31 33 34 33 32 35 34 35 39 40 42 46 47 45 41 40 41 43 43 36 29 31 30 28 26 22 19 20 20 21 22 23 23 23 24 25 25 26 26 26 27 28 28 27 25 24 26 28 28 27 27 29 31 34 35 35 35 34 35 38 43 45 43 42 42 38 34 37 38
8 7 7 9 12 15 16 16 17 17 18 24 28 30 28 27 28 29 29 31 32 32 34 34 35 39 43 43 43 46 46 42 41 43 43 45 42 35 34 33 32 30 26 23 21 20 20 21 22 22 23 23 24 25 25 25 26 26 27 27 28 27 23 22 26 28 27 29 32 34 36 36 36 38 39 39 40 42 43 42 42 42 40 38 38 38
8 6 6 7 10 13 15 15 16 17 17 20 24 27 28 27 28 28 28 31 33 33 33 36 37 38 41 42 41 44 46 42 40 42 44 45 42 37 36 36 36 35 32 29 26 23 20 20 21 22 22 22 23 23 23 24 25 25 26 26 26 27 24 19 21 25 27 29 33 34 35 35 36 39 42 43 42 41 42 43 43 42 42 41 41 41
8 7 6 6 8 11 14 15 16 16 17 17 19 25 27 28 28 29 29 30 34 37 35 36 39 37 37 40 40 42 45 44 40 40 42 45 43 41 39 37 38 38 36 32 29 27 24 21 21 21 22 22 22 22 22 23 25 25 26 25 25 26 24 19 17 22 26 27 29 32 34 34 36 39 41 43 42 42 42 44 43 40 41 42 42 42
8 9 8 7 7 9 12 14 15 15 16 16 16 20 25 28 28 28 30 31 32 37 36 36 40 38 35 38 39 40 45 47 44 38 38 42 45 44 42 39 39 39 37 34 31 28 27 24 23 23 22 22 22 22 23 23 25 25 26 26 25 25 23 20 18 19 23 24 25 30 34 34 35 38 39 41 42 43 41 41 41 41 44 45 45 45
8 8 9 8 7 8 10 12 13 15 16 16 15 17 22 27 28 27 30 31 31 34 35 36 40 40 39 41 40 41 46 48 46 41 38 42 44 40 38 38 39 40 40 39 36 33 29 24 23 24 23 24 23 23 23 24 25 26 26 27 25 23 21 21 22 21 21 21 21 26 32 34 36 37 36 37 40 42 40 38 40 43 45 46 46 47
9 8 8 8 7 7 9 10 11 13 15 15 15 19 21 24 26 25 28 31 31 32 35 37 39 41 43 43 43 44 44 45 46 43 42 45 44 37 33 35 38 40 41 42 41 39 34 27 24 25 25 26 26 25 24 24 24 25 27 28 27 23 21 22 23 23 21 20 20 24 28 32 36 36 35 37 40 42 39 38 41 42 43 43 45 47
10 9 8 8 8 8 8 9 10 11 15 15 15 21 23 23 24 25 26 29 30 30 33 35 39 44 45 44 44 43 43 47 48 45 43 45 47 41 34 33 35 37 38 40 41 42 40 34 28 28 28 29 30 29 27 26 25 26 27 28 28 26 23 23 24 24 22 21 22 24 27 30 35 37 37 40 42 41 38 39 40 40 41 41 42 45
10 9 9 8 8 8 7 8 9 10 14 15 16 20 23 23 23 24 25 26 27 28 30 31 37 43 45 45 45 42 43 48 48 44 43 44 46 43 37 33 34 34 36 38 40 42 43 40 34 31 30 31 32 32 31 30 29 29 30 30 30 27 24 24 26 25 23 23 24 26 26 28 33 36 38 41 41 38 35 35 36 36 38 38 38 39
10 10 10 9 7 8 8 8 8 9 11 15 17 20 22 23 22 22 24 24 26 29 28 28 33 40 43 44 45 44 42 45 45 42 41 42 42 40 37 36 37 37 38 39 41 43 44 45 40 36 33 31 31 33 34 34 32 32 33 33 33 31 26 25 26 25 24 24 26 26 25 27 31 35 37 39 37 34 32 32 32 33 34 34 35 34
10 10 10 10 8 8 8 7 8 8 8 12 18 21 21 23 23 22 23 23 26 28 27 26 30 36 41 41 42 42 40 41 41 40 40 40 40 38 38 39 40 39 38 38 41 42 43 42 40 38 35 31 31 33 35 36 36 36 36 35 36 35 31 27 26 24 24 26 28 26 24 25 29 34 38 37 33 31 33 33 32 34 34 34 36 37
11 11 11 11 10 9 9 8 7 8 8 10 17 23 23 23 25 26 25 25 27 27 26 27 29 32 36 36 38 40 39 39 38 37 38 41 41 39 39 39 38 37 36 36 37 39 39 38 38 38 36 32 31 33 36 37 38 38 39 38 38 37 35 31 27 24 24 26 27 25 22 23 29 34 36 34 31 31 34 33 33 35 35 35 36 38
13 11 11 12 12 10 9 7 7 7 7 9 16 21 22 24 27 29 27 26 26 25 25 26 26 27 30 33 34 36 39 39 37 35 36 40 43 41 39 37 37 36 36 36 36 37 39 39 39 39 38 35 33 35 38 39 37 38 38 39 39 39 37 34 30 26 25 26 27 24 22 23 28 32 32 32 32 33 34 34 33 35 35 34 33 35
13 13 11 10 11 11 8 7 7 7 7 9 13 15 17 22 26 26 25 24 23 24 25 27 27 26 28 31 32 33 36 38 37 37 37 39 41 41 41 39 38 38 37 35 36 39 40 39 37 37 37 36 35 37 40 40 38 37 37 38 39 39 38 35 32 28 27 28 29 28 26 24 27 29 29 31 34 35 35 33 33 35 35 32 32 35
14 13 11 10 11 11 9 7 7 7 7 8 10 11 12 17 22 23 22 23 24 25 26 27 28 27 26 28 30 31 35 37 37 38 39 40 40 40 41 39 38 40 39 37 38 40 40 38 35 34 35 37 38 39 41 41 38 37 36 37 38 39 37 34 31 29 30 32 33 33 32 29 27 27 28 32 36 37 36 32 31 34 36 34 36 39
14 13 12 11 11 11 10 8 8 8 7 7 9 9 9 11 18 23 22 22 23 26 28 27 28 28 26 27 28 30 34 37 37 38 40 40 40 38 36 34 35 38 38 39 40 40 40 37 34 34 35 37 39 40 41 41 39 37 36 37 38 38 37 35 32 31 31 33 35 35 36 33 30 29 29 32 37 38 36 33 33 36 38 39 43 46
14 15 15 14 12 12 11 10 9 7 7 7 7 7 8 10 16 22 24 24 22 24 28 28 26 27 27 27 28 29 32 34 36 39 40 39 38 37 33 31 32 33 32 36 40 41 39 36 35 36 35 35 37 39 40 42 42 39 37 37 38 36 36 36 35 33 31 32 35 36 37 37 34 32 32 32 34 34 33 36 39 40 41 43 47 50
13 16 18 19 16 13 11 10 10 9 7 6 6 8 10 11 13 18 23 24 21 23 28 28 26 27 28 28 27 27 29 31 32 36 38 37 37 37 35 33 34 32 30 34 40 40 37 35 34 34 35 36 38 39 40 43 44 42 39 37 37 36 35 36 36 35 34 33 34 37 38 36 36 36 33 31 30 29 30 37 42 43 43 46 50 51
12 14 17 20 21 17 12 11 11 9 8 6 6 9 12 13 14 15 17 19 21 26 29 27 26 27 28 27 27 26 28 30 29 31 35 34 35 35 34 34 36 35 33 35 37 36 35 35 32 32 35 38 40 41 43 45 46 45 43 40 39 37 35 35 36 35 35 34 36 38 37 37 37 36 32 29 28 28 31 37 42 44 45 49 52 51
13 14 14 19 23 19 13 11 11 9 9 8 6 7 10 13 14 15 16 18 21 27 29 26 25 26 26 26 27 26 28 28 27 29 32 32 31 33 33 32 36 38 36 34 35 33 35 35 31 32 39 43 43 43 43 45 47 47 46 43 42 41 38 36 36 34 33 34 36 38 37 35 36 34 31 30 29 29 33 37 40 43 46 48 48 47
13 15 15 17 22 21 14 13 12 10 9 9 7 6 7 11 15 17 18 19 21 24 25 26 26 25 24 25 25 24 26 27 27 29 31 31 30 33 32 30 34 39 35 31 32 33 33 33 30 31 39 44 45 44 43 44 46 47 47 45 44 43 41 37 36 33 30 32 34 36 36 34 34 33 32 32 32 32 33 34 36 40 42 43 44 44
14 15 15 15 18 21 20 17 14 12 10 9 8 7 5 8 14 18 17 16 19 21 22 25 26 23 22 25 25 25 26 26 28 29 30 30 31 32 32 30 32 36 33 30 30 31 31 31 31 31 36 40 42 45 45 44 45 46 46 46 45 43 42 39 36 33 30 31 33 33 33 33 33 33 33 33 34 34 33 33 35 37 39 41 43 43
17 15 17 18 17 19 22 20 17 15 12 10 10 8 6 5 8 13 15 14 17 20 20 24 27 23 22 25 25 26 27 25 26 28 28 28 29 28 28 30 32 34 32 30 29 31 32 32 32 34 35 34 35 40 44 42 43 46 46 45 44 42 42 39 36 34 32 32 34 33 32 33 34 35 35 36 37 35 34 35 36 37 39 43 45 44
21 18 18 21 19 18 21 22 21 19 15 12 10 8 8 6 5 8 12 16 20 20 19 24 27 23 21 24 25 25 27 26 25 26 26 27 27 25 25 29 32 33 34 33 32 33 34 32 34 36 35 32 30 34 41 41 40 42 44 45 45 42 40 38 35 34 34 35 36 34 33 33 35 36 37 39 39 37 36 37 37 38 41 45 48 48
24 22 19 19 20 20 20 20 21 19 15 13 11 9 8 7 6 6 9 15 21 22 22 24 25 22 22 23 24 25 28 28 27 26 27 27 26 27 30 31 31 33 34 34 33 33 32 30 31 33 33 31 29 31 38 40 39 40 42 44 45 43 40 37 35 34 34 36 37 37 35 33 33 34 35 38 40 40 38 37 38 39 41 45 49 50
28 27 23 20 20 20 19 18 19 19 16 13 11 11 9 8 8 8 8 10 14 20 24 25 23 22 24 23 23 25 27 28 29 27 27 28 26 28 33 33 31 31 32 31 30 31 32 31 30 30 29 29 28 29 34 38 38 39 40 42 45 44 40 37 34 34 34 35 37 38 37 34 32 33 35 37 40 41 39 38 40 41 42 43 46 49
32 30 26 22 20 20 19 19 19 20 18 15 13 11 10 9 9 10 11 8 9 15 20 23 24 24 24 25 24 25 27 28 30 30 27 27 27 28 30 31 31 33 32 31 31 30 31 32 31 30 29 29 30 29 32 36 38 38 40 42 44 43 41 35 33 34 34 34 36 37 36 35 34 34 35 36 39 41 40 41 43 45 45 44 45 49
35 34 31 28 24 20 19 20 21 23 22 18 18 16 13 12 11 11 12 10 10 13 13 17 24 24 22 24 25 27 28 28 30 30 28 27 28 29 29 30 32 34 35 35 35 34 33 32 32 30 28 30 33 33 33 36 38 39 41 42 43 43 39 34 32 32 32 33 36 37 35 35 36 36 36 37 39 41 42 44 46 48 49 47 47 50
38 36 33 31 29 23 20 19 21 26 26 23 21 20 17 16 13 11 11 12 13 14 9 11 21 24 21 21 24 26 29 30 30 31 30 28 27 27 29 29 30 31 32 35 37 38 36 34 34 33 31 31 34 35 35 34 36 39 41 42 43 42 37 31 30 30 29 30 34 34 34 35 36 37 37 38 40 42 44 46 47 50 52 50 49 50
37 36 36 35 33 28 25 22 20 22 27 28 25 22 19 18 16 12 11 12 13 14 11 10 16 19 18 20 23 25 28 31 32 33 33 31 29 27 27 28 29 29 29 31 34 36 35 34 34 34 32 31 30 31 31 32 35 40 42 42 42 39 34 30 28 27 26 27 29 30 32 34 36 38 39 40 43 45 46 48 48 51 53 54 53 52
35 35 36 37 34 28 26 30 27 23 25 29 28 25 23 20 19 17 14 13 13 14 13 13 15 16 16 18 20 22 26 29 31 32 34 33 32 31 28 27 28 27 25 26 29 31 31 31 31 30 31 30 28 28 28 29 33 38 41 39 38 36 33 29 26 25 24 25 26 28 30 33 36 39 40 42 44 46 49 50 52 55 58 60 59 57
37 36 35 34 32 27 26 31 34 32 31 29 24 22 24 23 21 19 16 16 16 14 14 14 14 16 18 20 20 20 22 25 26 28 31 32 33 34 32 30 29 28 25 24 25 27 30 31 30 28 29 29 28 27 27 27 29 34 38 37 36 35 34 29 25 24 24 23 25 27 30 32 35 36 40 43 46 49 51 54 56 59 62 63 62 62
38 37 34 32 31 29 26 26 33 37 35 27 21 20 23 24 23 21 18 18 19 18 17 15 14 16 17 19 20 20 22 24 25 27 28 29 32 34 34 32 31 30 28 25 24 26 30 33 33 31 29 30 29 28 28 27 28 32 37 38 37 35 34 30 26 24 24 25 25 26 29 33 36 37 42 47 49 51 54 57 60 62 63 63 62 62
41 39 35 31 29 31 29 27 32 36 31 26 26 27 26 24 24 24 22 22 22 21 18 17 17 17 18 17 16 19 22 23 24 26 27 27 29 33 34 33 32 32 31 28 25 26 27 30 33 33 31 31 30 29 29 28 28 33 37 39 38 35 33 31 27 23 23 24 25 26 28 34 38 41 44 47 49 52 56 59 62 62 61 60 59 59
48 46 39 33 31 34 33 29 30 31 28 28 31 33 31 26 24 26 25 23 23 23 22 21 21 20 20 20 17 16 18 20 22 24 25 27 27 29 31 32 33 33 33 31 30 30 29 29 31 32 32 33 32 31 30 30 30 33 35 36 37 36 35 32 28 24 23 24 25 27 30 35 39 42 43 45 49 53 57 59 61 60 59 58 59 59
51 50 46 41 38 36 33 31 32 33 32 32 31 32 33 32 29 29 27 23 23 26 28 28 26 25 26 26 24 20 18 20 22 21 20 24 26 27 27 29 31 33 33 33 34 32 29 29 28 29 31 34 34 31 30 31 32 33 35 36 37 38 38 35 30 26 26 26 26 30 34 36 39 42 44 46 50 54 58 60 61 60 59 59 60 60
50 52 51 48 45 39 36 35 36 38 39 36 33 32 34 35 34 33 31 29 26 27 30 30 29 29 28 28 28 27 23 22 22 21 20 20 21 22 23 24 27 31 32 32 33 31 29 26 25 26 27 30 33 32 31 32 32 32 35 37 37 38 40 37 32 30 30 30 31 34 37 38 42 45 48 50 54 58 61 62 62 61 62 63 63 63
49 51 52 51 50 46 42 39 38 39 41 39 35 35 37 37 36 35 33 31 29 28 30 31 30 29 28 27 28 30 30 27 24 23 22 21 21 22 21 20 21 24 25 26 28 30 28 26 25 26 26 26 29 31 31 31 32 32 35 38 38 38 40 39 36 35 36 35 37 40 42 43 45 49 51 54 59 62 62 61 62 62 63 65 66 65
47 50 52 53 54 52 50 46 42 41 46 44 37 36 40 41 40 39 37 36 36 35 32 33 32 31 31 31 30 32 34 33 29 25 23 25 27 27 24 21 19 19 19 21 24 28 29 27 25 25 26 26 27 30 32 31 31 31 34 36 37 39 42 42 39 39 40 41 43 46 47 47 49 52 56 60 61 59 58 59 60 61 62 64 67 67
46 47 48 48 51 54 57 54 46 43 48 49 43 43 46 44 41 41 40 40 42 40 35 35 35 34 34 35 33 33 33 32 31 29 26 25 28 28 28 27 25 23 22 22 22 23 25 27 25 23 26 28 28 29 31 32 31 32 35 36 37 39 43 45 42 40 42 45 47 49 49 50 53 56 59 59 57 56 58 59 60 62 63 66 69 70
46 46 47 47 47 49 52 52 48 45 48 49 49 49 50 47 46 45 44 44 44 39 35 35 37 38 39 39 38 37 36 33 30 29 27 27 27 28 31 32 31 31 31 28 26 24 23 27 27 23 25 29 30 30 31 31 32 35 38 40 41 42 44 45 44 43 46 48 49 51 52 54 57 59 59 58 58 59 60 60 62 65 66 68 69 69
47 44 44 45 45 44 46 51 53 50 47 47 51 53 52 50 49 49 49 46 42 39 36 36 39 42 43 42 41 41 40 37 34 30 29 30 29 29 32 33 34 37 38 35 34 32 29 29 28 25 25 27 28 29 30 32 32 36 44 51 52 51 50 48 47 48 50 52 53 55 58 59 59 57 55 54 57 60 60 61 65 67 67 67 67 67
54 48 45 44 42 41 43 49 53 51 47 48 54 58 57 53 50 49 49 46 42 41 40 40 43 45 43 42 43 43 42 42 39 35 34 35 34 35 36 35 34 36 38 37 36 38 38 34 29 28 27 27 28 31 33 35 35 39 51 61 60 55 51 50 50 51 51 52 55 57 57 54 50 47 45 48 53 58 60 63 67 68 68 66 65 64
63 63 63 57 48 42 41 45 52 55 54 53 55 58 58 55 50 48 50 50 48 47 45 45 46 46 43 41 41 42 45 47 43 40 41 42 41 41 42 40 38 37 38 38 39 45 49 42 33 30 31 32 34 34 33 34 37 43 56 65 63 57 53 50 51 53 53 55 58 56 51 48 46 47 51 55 58 61 62 64 65 65 66 65 63 61
68 69 71 65 55 48 45 46 50 55 57 54 54 57 58 56 51 49 53 56 55 52 50 47 47 45 42 40 40 42 46 49 46 44 46 46 44 44 44 44 43 44 45 46 48 54 55 47 38 37 39 41 42 40 38 42 47 51 59 65 66 62 58 55 56 59 59 59 58 54 50 52 56 61 65 65 63 62 64 65 64 62 62 61 60 58
73 70 69 69 65 59 57 54 53 56 58 56 57 60 60 57 52 50 54 55 52 51 49 45 43 43 40 39 41 42 44 47 47 49 51 51 47 46 45 44 46 49 51 54 59 62 59 50 45 46 49 51 52 52 52 53 56 57 61 65 64 59 54 52 52 52 52 52 52 52 55 60 65 68 70 69 67 65 65 66 66 65 62 59 56 55
81 76 75 76 73 69 70 66 60 59 61 61 62 61 59 57 53 50 49 48 47 48 45 39 38 39 38 38 39 39 42 46 48 51 54 56 54 52 50 47 45 44 47 55 66 70 64 55 51 51 54 56 58 61 61 58 59 62 62 58 52 46 42 42 42 42 45 48 50 54 60 64 66 68 71 73 71 68 67 68 68 67 62 55 53 56
86 86 83 78 75 80 84 77 67 63 63 63 63 60 57 58 56 50 46 45 46 45 41 37 38 39 39 38 38 38 42 48 53 56 60 62 63 59 55 54 54 52 55 63 70 69 65 60 56 55 58 61 66 69 68 62 60 59 52 44 40 38 38 41 44 47 51 54 55 59 65 68 68 70 72 72 70 68 68 68 65 62 57 53 52 57
88 91 89 84 81 85 87 80 72 69 69 68 65 61 58 59 57 52 48 46 45 43 40 39 41 41 40 40 41 42 46 50 54 60 66 69 71 68 65 67 70 70 70 70 67 63 63 64 63 62 65 69 70 67 60 54 51 49 44 40 39 40 42 46 51 55 58 60 62 65 68 69 68 68 69 70 69 66 65 63 59 56 55 55 55 57
91 92 91 91 88 85 82 79 75 72 72 71 68 64 61 59 55 53 51 47 43 41 39 39 39 40 42 44 46 49 54 56 57 63 71 75 77 77 76 77 76 74 73 73 70 68 67 65 63 65 68 69 68 61 54 51 51 52 49 45 44 45 46 48 53 57 61 65 66 66 67 68 68 68 68 68 67 64 62 61 59 57 57 56 55 55